Pine Bluffs, WY

2:26 PM MST on December 07, 2016 (GMT -0700)
Pine Bluffs Muni, Pine Bluffs

Weather History for K82V - August, 2014

Change the Weather History Date:

Friday, August 22, 2014

  Actual Average (KCYS) Record (KCYS)
Temperature  
Mean Temperature 67 °F 67 °F  
Max Temperature 77 °F 80 °F 92 °F (1949)
Min Temperature 57 °F 53 °F 36 °F (1883)
Degree Days  
Heating Degree Days 0 1  
Month to date heating degree days 22  
Since 1 June heating degree days 178  
Since 1 July heating degree days 44  
Cooling Degree Days 2 3  
Month to date cooling degree days 94  
Year to date cooling degree days 304  
Since 1 June cooling degree days 301  
Growing Degree Days 17 (Base 50)    
Moisture  
Dew Point 53 °F    
Average Humidity 67    
Maximum Humidity 94    
Minimum Humidity 39    
Precipitation  
Precipitation 0.00 in 0.05 in 0.89 in (2007)
Month to date precipitation 1.50  
Year to date precipitation 12.00  
Snow  
Snow 0.00 in 0.00 in - ()
Month to date snowfall 0.0  
Since 1 July snowfall 0.0  
Snow Depth -    
Sea Level Pressure  
Sea Level Pressure 30.12 in    
Wind  
Wind Speed 6 mph (South)    
Max Wind Speed 24 mph    
Max Gust Speed 30 mph    
Visibility 10 miles    
Events Rain , Thunderstorm    
T = Trace of Precipitation, MM = Missing Value Source: NWS Daily Summary

Daily Weather History Graph

Daily Weather History Graph

Search for Another Location

Airport or City:

Trip Planner

Search our weather history database for the weather conditions in past years. The results will help you decide how hot, cold, wet, or windy it might be!

Date:

Astronomy

Aug. 22, 2014 Rise Set
Actual Time 6:13 AM MDT 7:44 PM MDT
Civil Twilight 5:44 AM MDT 8:13 PM MDT
Nautical Twilight 5:09 AM MDT 8:48 PM MDT
Astronomical Twilight 4:31 AM MDT 9:25 PM MDT
Moon 3:37 AM MDT (8/22) 5:55 PM MDT (8/22)
Length of Visible Light 14h 29m
Length of Day
13h 31m
Waning Crescent, 7% of the Moon is Illuminated
Aug 22
Waning Crescent
Aug 25
New
Sep 2
First Quarter
Sep 8
Full
Sep 15
Last Quarter

Hourly Weather History & Observations

Time (MDT) Temp. Dew Point Humidity Pressure Visibility Wind Dir Wind Speed Gust Speed Precip Events Conditions
12:15 AM 62.6 °F 48.2 °F 59% 30.14 in 10.0 mi Calm Calm - N/A   Overcast
12:55 AM 62.6 °F 50.0 °F 63% 30.14 in 10.0 mi SSW 3.5 mph - N/A   Overcast
1:15 AM 62.6 °F 50.0 °F 63% 30.14 in 10.0 mi Calm Calm - N/A   Mostly Cloudy
1:35 AM 60.8 °F 50.0 °F 68% 30.15 in 10.0 mi South 3.5 mph - N/A   Mostly Cloudy
1:55 AM 60.8 °F 50.0 °F 68% 30.14 in 10.0 mi West 4.6 mph - N/A   Mostly Cloudy
2:15 AM 60.8 °F 50.0 °F 68% 30.14 in 10.0 mi SSW 3.5 mph - N/A   Overcast
2:35 AM 60.8 °F 50.0 °F 68% 30.13 in 10.0 mi SE 4.6 mph - N/A   Overcast
2:55 AM 60.8 °F 51.8 °F 72% 30.13 in 10.0 mi Calm Calm - N/A   Overcast
3:15 AM 60.8 °F 50.0 °F 68% 30.13 in 10.0 mi SW 3.5 mph - N/A   Overcast
3:35 AM 60.8 °F 50.0 °F 68% 30.14 in 10.0 mi SSW 3.5 mph - N/A   Mostly Cloudy
3:55 AM 62.6 °F 50.0 °F 63% 30.15 in 10.0 mi SW 6.9 mph - N/A   Mostly Cloudy
4:15 AM 62.6 °F 50.0 °F 63% 30.14 in 10.0 mi SW 3.5 mph - N/A   Overcast
4:35 AM 60.8 °F 51.8 °F 72% 30.14 in 10.0 mi South 3.5 mph - N/A   Scattered Clouds
4:55 AM 60.8 °F 51.8 °F 72% 30.14 in 10.0 mi SSE 5.8 mph - N/A   Scattered Clouds
5:15 AM 60.8 °F 51.8 °F 72% 30.15 in 10.0 mi Calm Calm - N/A   Overcast
5:35 AM 60.8 °F 51.8 °F 72% 30.15 in 10.0 mi Calm Calm - N/A   Overcast
5:55 AM 62.6 °F 51.8 °F 68% 30.17 in 10.0 mi SSW 6.9 mph - N/A   Overcast
6:15 AM 60.8 °F 51.8 °F 72% 30.18 in 10.0 mi West 3.5 mph - N/A   Mostly Cloudy
6:35 AM 60.8 °F 53.6 °F 77% 30.18 in 10.0 mi WSW 3.5 mph - N/A   Overcast
6:55 AM 62.6 °F 53.6 °F 72% 30.16 in 10.0 mi South 6.9 mph - N/A   Mostly Cloudy
7:15 AM 60.8 °F 53.6 °F 77% 30.17 in 10.0 mi South 6.9 mph - N/A   Overcast
7:35 AM 60.8 °F 55.4 °F 82% 30.17 in 10.0 mi South 6.9 mph - N/A   Mostly Cloudy
7:55 AM 60.8 °F 55.4 °F 82% 30.17 in 10.0 mi South 4.6 mph - N/A   Scattered Clouds
8:15 AM 60.8 °F 55.4 °F 82% 30.18 in 10.0 mi SW 5.8 mph - N/A   Scattered Clouds
8:35 AM 62.6 °F 55.4 °F 77% 30.18 in 10.0 mi West 9.2 mph - N/A   Mostly Cloudy
8:55 AM 62.6 °F 55.4 °F 77% 30.18 in 10.0 mi West 8.1 mph - N/A   Mostly Cloudy
9:15 AM 62.6 °F 55.4 °F 77% 30.18 in 10.0 mi WSW 8.1 mph - N/A   Mostly Cloudy
9:55 AM 66.2 °F 55.4 °F 68% 30.17 in 10.0 mi SW 3.5 mph - N/A   Clear
10:15 AM 66.2 °F 55.4 °F 68% 30.17 in 10.0 mi South 4.6 mph - N/A   Clear
10:55 AM 68.0 °F 55.4 °F 64% 30.16 in 10.0 mi South 3.5 mph - N/A   Clear
11:15 AM 69.8 °F 55.4 °F 60% 30.14 in 10.0 mi Calm Calm - N/A Thunderstorm Clear
11:35 AM 71.6 °F 55.4 °F 57% 30.14 in 10.0 mi Calm Calm - N/A   Clear
11:55 AM 73.4 °F 53.6 °F 50% 30.13 in 10.0 mi WSW 3.5 mph - N/A   Scattered Clouds
12:15 PM 73.4 °F 51.8 °F 47% 30.14 in 10.0 mi SSW 4.6 mph - N/A   Scattered Clouds
12:35 PM 73.4 °F 53.6 °F 50% 30.13 in 10.0 mi ESE 6.9 mph - N/A   Mostly Cloudy
12:55 PM 75.2 °F 53.6 °F 47% 30.12 in 10.0 mi South 9.2 mph - N/A   Overcast
1:15 PM 77.0 °F 51.8 °F 41% 30.11 in 10.0 mi SSE 8.1 mph - N/A   Mostly Cloudy
1:35 PM 77.0 °F 50.0 °F 39% 30.11 in 10.0 mi South 9.2 mph - N/A   Scattered Clouds
1:55 PM 77.0 °F 50.0 °F 39% 30.11 in 10.0 mi SE 10.4 mph - N/A   Mostly Cloudy
2:15 PM 77.0 °F 51.8 °F 41% 30.11 in 10.0 mi South 6.9 mph - N/A   Overcast
2:35 PM 77.0 °F 51.8 °F 41% 30.10 in 10.0 mi SSE 11.5 mph 17.3 mph N/A   Overcast
2:55 PM 77.0 °F 53.6 °F 44% 30.09 in 10.0 mi SSW 9.2 mph 18.4 mph N/A   Mostly Cloudy
3:15 PM 75.2 °F 55.4 °F 50% 30.09 in 10.0 mi South 10.4 mph 19.6 mph N/A   Mostly Cloudy
3:55 PM 73.4 °F 53.6 °F 50% 30.09 in 10.0 mi South 11.5 mph 18.4 mph N/A   Overcast
4:15 PM 71.6 °F 53.6 °F 53% 30.09 in 10.0 mi SSE 12.7 mph 17.3 mph N/A   Mostly Cloudy
4:35 PM 71.6 °F 53.6 °F 53% 30.08 in 10.0 mi South 9.2 mph - N/A   Mostly Cloudy
4:55 PM 71.6 °F 50.0 °F 46% 30.08 in 10.0 mi SSE 13.8 mph 19.6 mph N/A   Mostly Cloudy
5:15 PM 71.6 °F 50.0 °F 46% 30.08 in 10.0 mi SSE 13.8 mph - N/A   Scattered Clouds
5:35 PM 69.8 °F 50.0 °F 49% 30.09 in 10.0 mi South 15.0 mph 21.9 mph N/A   Mostly Cloudy
5:55 PM 66.2 °F 53.6 °F 64% 30.10 in 10.0 mi South 15.0 mph 23.0 mph N/A Rain Light Rain
6:15 PM 64.4 °F 53.6 °F 68% 30.09 in 10.0 mi SSE 15.0 mph 19.6 mph N/A   Mostly Cloudy
6:35 PM 62.6 °F 55.4 °F 77% 30.07 in 10.0 mi SSE 13.8 mph 23.0 mph N/A   Mostly Cloudy
6:55 PM 62.6 °F 55.4 °F 77% 30.07 in 10.0 mi SE 18.4 mph 25.3 mph N/A   Mostly Cloudy
7:15 PM 62.6 °F 55.4 °F 77% 30.05 in 10.0 mi SE 23.0 mph 29.9 mph N/A   Overcast
7:35 PM 60.8 °F 55.4 °F 82% 30.06 in 10.0 mi SE 18.4 mph 27.6 mph N/A   Scattered Clouds
7:55 PM 60.8 °F 55.4 °F 82% 30.07 in 10.0 mi SE 19.6 mph 26.5 mph N/A   Scattered Clouds
8:15 PM 60.8 °F 55.4 °F 82% 30.06 in 10.0 mi SE 20.7 mph 26.5 mph N/A   Drizzle
8:35 PM 59.0 °F 55.4 °F 88% 30.05 in 10.0 mi SE 24.2 mph 29.9 mph N/A Rain Light Rain
8:55 PM 59.0 °F 55.4 °F 88% 30.06 in 10.0 mi SE 20.7 mph 29.9 mph N/A Rain Light Rain
9:15 PM 59.0 °F 55.4 °F 88% 30.05 in 10.0 mi SE 10.4 mph - N/A Rain Light Rain
9:55 PM 59.0 °F 55.4 °F 88% 30.06 in 10.0 mi SW 3.5 mph - N/A   Scattered Clouds
10:15 PM 59.0 °F 55.4 °F 88% 30.06 in 10.0 mi SSW 5.8 mph - N/A   Mostly Cloudy
10:55 PM 57.2 °F 55.4 °F 94% 30.04 in 10.0 mi Calm Calm - N/A   Scattered Clouds
11:55 PM 57.2 °F 55.4 °F 94% 30.04 in 10.0 mi WSW 3.5 mph - N/A   Scattered Clouds